time_stamp(utc),avg(mph),gust(mph),direction(deg),12m_air_temp(f),sonic_u(cm/s),sonic_v(cm/s),sonic_w(cm/s),pressure,2m_air_temp(f),pyranometer(W/m^2)
"2021-07-12 00:02:39+00",16.4,19.4,,73.5,398,-600,-7,1016.08,73.8,0
"2021-07-12 00:07:39+00",15.2,17.2,,73.5,379,-559,-4,1016.1,73.8,0
"2021-07-12 00:12:39+00",14.1,17.1,,73.5,380,-503,-2,1016.17,73.8,0
"2021-07-12 00:17:39+00",13.1,15.1,,73.3,372,-450,-3,1016.25,73.6,0
"2021-07-12 00:22:39+00",12.7,14.7,,73.3,394,-405,8,1016.21,73.6,0
"2021-07-12 00:27:39+00",12.5,14.5,,73.4,360,-423,1,1016.09,73.7,0
"2021-07-12 00:32:39+00",13.0,15.0,,73.4,355,-440,13,1016.11,73.6,0
"2021-07-12 00:37:39+00",11.6,13.6,,73.4,297,-407,10,1016.1,73.6,0
"2021-07-12 00:42:39+00",11.7,13.7,,73.3,324,-408,7,1016.09,73.5,0
"2021-07-12 00:47:39+00",12.0,14.0,,73.3,301,-433,-4,1016.13,73.4,0
"2021-07-12 00:52:39+00",10.8,12.8,,73.3,215,-402,12,1016.13,73.3,0
"2021-07-12 00:57:39+00",11.5,13.5,,73.3,166,-444,3,1016.13,73.3,0
"2021-07-12 01:02:39+00",11.5,15.5,,73.4,158,-435,-12,1016.17,73.3,0
"2021-07-12 01:07:39+00",10.8,12.8,,73.4,127,-446,-6,1016.18,73.4,0
"2021-07-12 01:12:39+00",9.2,11.2,,73.4,87,-378,-8,1016.28,73.4,0
"2021-07-12 01:17:39+00",9.6,12.6,,73.5,39,-418,-17,1016.42,73.5,0
"2021-07-12 01:22:39+00",9.5,11.5,,73.6,46,-407,-25,1016.44,73.5,0
"2021-07-12 01:27:39+00",8.9,11.9,,73.7,13,-366,-21,1016.5,73.6,0
"2021-07-12 01:32:39+00",8.1,11.1,,73.9,10,-333,-59,1016.48,73.8,0
"2021-07-12 01:37:39+00",8.6,12.6,,74.3,-46,-310,-36,1016.47,74.2,0
"2021-07-12 01:42:39+00",8.8,12.8,,74.4,-57,-349,-29,1016.59,74.2,0
"2021-07-12 01:47:39+00",10.0,14.0,,74.4,-96,-413,-54,1016.74,74.3,0
"2021-07-12 01:52:39+00",10.0,13.0,,74.5,-148,-391,-52,1016.72,74.3,0
"2021-07-12 01:57:39+00",9.0,11.0,,74.4,-93,-365,-55,1016.76,74.3,0
"2021-07-12 02:02:39+00",6.5,8.5,,74.3,-32,-228,-17,1016.79,74.3,0
"2021-07-12 02:07:39+00",7.4,11.4,,74.3,-61,-293,-37,1016.77,74.2,0
"2021-07-12 02:12:39+00",5.7,8.7,,74.3,-67,-214,-36,1016.81,74.2,0
"2021-07-12 02:17:39+00",6.8,8.8,,74.2,-65,-261,-43,1016.82,74.2,0
"2021-07-12 02:22:39+00",8.4,10.4,,74.2,-86,-321,-45,1016.95,74.2,0
"2021-07-12 02:27:39+00",7.9,9.9,,74.1,-101,-317,-39,1016.91,74.1,0
"2021-07-12 02:32:39+00",6.1,8.1,,74.1,-56,-234,-11,1016.96,74.1,0
"2021-07-12 02:37:39+00",8.1,11.1,,74.1,-57,-327,-45,1017.03,74.1,0
"2021-07-12 02:42:39+00",8.5,12.5,,74.1,-43,-346,-45,1016.87,74.2,0
"2021-07-12 02:47:39+00",11.5,14.5,,74.1,-103,-490,-75,1016.9,74.1,0
"2021-07-12 02:52:39+00",9.9,12.9,,74.1,-59,-409,-41,1017.03,74.1,0
"2021-07-12 02:57:39+00",8.6,10.6,,74.1,-59,-350,-47,1017.07,74,0
"2021-07-12 03:02:39+00",10.4,13.4,,74,-92,-434,-41,1017.01,74,0
"2021-07-12 03:07:39+00",9.0,12.0,,73.9,-51,-394,-36,1016.96,73.9,0
"2021-07-12 03:12:39+00",11.8,15.8,,74,-86,-494,-35,1016.92,73.9,0
"2021-07-12 03:17:39+00",13.5,15.5,,74.1,-125,-570,-43,1016.92,74,0
"2021-07-12 03:22:39+00",13.0,18.0,,74.1,-149,-567,-37,1016.95,74,0
"2021-07-12 03:27:39+00",13.8,15.8,,74.1,-217,-579,-34,1016.94,74,0
"2021-07-12 03:32:39+00",12.3,14.3,,74.1,-126,-526,-31,1016.95,74,0
"2021-07-12 03:37:39+00",14.6,17.6,,74,-211,-590,-32,1016.91,73.9,0
"2021-07-12 03:42:39+00",14.2,17.2,,73.9,-175,-601,-45,1016.98,73.8,0
"2021-07-12 03:47:39+00",14.3,19.3,,73.9,-205,-581,-37,1016.9,73.8,0
"2021-07-12 03:52:39+00",12.8,14.8,,73.8,-204,-513,-44,1016.88,73.7,0
"2021-07-12 03:57:39+00",13.3,14.3,,73.8,-237,-535,-39,1016.84,73.6,0
"2021-07-12 04:02:39+00",12.0,14.0,,73.8,-212,-484,-48,1016.84,73.6,0
"2021-07-12 04:07:39+00",12.8,15.8,,73.8,-189,-527,-44,1016.86,73.5,0
"2021-07-12 04:12:39+00",12.5,14.5,,73.8,-174,-527,-46,1016.89,73.5,0
"2021-07-12 04:17:39+00",13.1,15.1,,73.7,-226,-525,-54,1016.8,73.4,0
"2021-07-12 04:22:39+00",11.8,14.8,,73.8,-316,-515,-39,1017,73.5,0
"2021-07-12 04:27:39+00",13.5,15.5,,73.9,-332,-557,-26,1017.11,73.5,0
"2021-07-12 04:32:39+00",11.7,13.7,,73.9,-316,-495,-44,1017.09,73.6,0
"2021-07-12 04:37:39+00",12.9,14.9,,73.9,-283,-530,-25,1017.23,73.5,0
"2021-07-12 04:42:39+00",13.2,16.2,,73.8,-278,-541,-32,1017.18,73.5,0
"2021-07-12 04:47:39+00",10.4,11.4,,73.7,-241,-430,-27,1017.18,73.4,0
"2021-07-12 04:52:39+00",9.8,11.8,,73.8,-240,-415,-60,1017.13,73.4,0
"2021-07-12 04:57:39+00",7.2,8.2,,73.8,-192,-324,-71,1017.23,73.4,0
"2021-07-12 05:02:39+00",5.7,7.7,,73.7,-174,-222,-42,1017.21,73.4,0
"2021-07-12 05:07:39+00",10.2,13.2,,73.9,-321,-358,-45,1017.24,73.4,0
"2021-07-12 05:12:39+00",7.6,9.6,,74,-206,-372,-53,1017.23,73.4,0
"2021-07-12 05:17:39+00",7.8,9.8,,74,-220,-353,-48,1017.17,73.4,0
"2021-07-12 05:22:39+00",8.0,9.0,,74,-221,-372,-56,1017.22,73.4,0
"2021-07-12 05:27:39+00",7.7,8.7,,74,-218,-327,-58,1017.2,73.4,0
"2021-07-12 05:32:39+00",8.4,9.4,,74,-279,-380,-50,1017.26,73.4,0
"2021-07-12 05:37:39+00",9.1,11.1,,74,-279,-422,-56,1017.19,73.4,0
"2021-07-12 05:42:39+00",8.3,10.3,,74,-239,-378,-37,1017.25,73.4,0
"2021-07-12 05:47:39+00",8.8,10.8,,74,-233,-394,-46,1017.12,73.4,0
"2021-07-12 05:52:39+00",7.9,9.9,,74,-171,-340,-46,1017.07,73.4,0
"2021-07-12 05:57:39+00",10.0,11.0,,73.8,-129,-395,-76,1016.89,73.3,0
"2021-07-12 06:02:39+00",9.0,11.0,,73.7,-121,-356,-70,1016.9,73.3,0
"2021-07-12 06:07:39+00",8.6,10.6,,73.7,-125,-339,-65,1016.91,73.3,0
"2021-07-12 06:12:39+00",7.3,11.3,,73.6,-60,-274,-43,1016.84,73.2,0
"2021-07-12 06:17:39+00",7.2,9.2,,73.6,-7,-276,-57,1016.84,73.2,0
"2021-07-12 06:22:39+00",8.2,11.2,,73.4,-23,-324,-64,1016.76,73.1,0
"2021-07-12 06:27:39+00",8.6,11.6,,73.2,-45,-351,-66,1016.89,72.9,0
"2021-07-12 06:32:39+00",8.1,11.1,,73.1,-79,-312,-44,1016.98,72.8,0
"2021-07-12 06:37:39+00",11.6,15.6,,73,-145,-489,-68,1016.96,72.8,0
"2021-07-12 06:42:39+00",12.2,17.2,,73,-191,-515,-71,1017.02,72.7,0
"2021-07-12 06:47:39+00",13.6,16.6,,73.1,-198,-559,-56,1017.03,72.8,0
"2021-07-12 06:52:39+00",10.7,12.7,,73.1,-209,-468,-51,1017.02,72.8,0
"2021-07-12 06:57:39+00",13.0,15.0,,73.1,-309,-607,-47,1017.02,72.7,0
"2021-07-12 07:02:39+00",14.0,16.0,,73.1,-249,-598,-56,1016.94,72.7,0
"2021-07-12 07:07:39+00",11.3,13.3,,73.1,-219,-501,-48,1017.03,72.7,0
"2021-07-12 07:12:39+00",11.2,14.2,,73.1,-208,-472,-52,1017.01,72.8,0
"2021-07-12 07:17:39+00",7.9,9.9,,73.3,-222,-354,-55,1017.1,72.9,0
"2021-07-12 07:22:39+00",8.3,10.3,,73.5,-264,-378,-67,1017,73.1,0
"2021-07-12 07:27:39+00",8.4,10.4,,73.6,-231,-366,-55,1017.08,73.1,0
"2021-07-12 07:32:39+00",8.9,9.9,,73.6,-275,-382,-54,1017.04,73.1,0
"2021-07-12 07:37:39+00",8.4,11.4,,73.8,-279,-318,-38,1017.07,73.2,0
"2021-07-12 07:42:39+00",8.2,10.2,,73.9,-259,-319,-51,1017.08,73.3,0
"2021-07-12 07:47:39+00",7.7,9.7,,73.8,-153,-298,-76,1017.19,73.3,0
"2021-07-12 07:52:39+00",8.0,11.0,,73.7,-243,-357,-41,1017.2,73.2,0
"2021-07-12 07:57:39+00",7.1,8.1,,73.7,-163,-321,-78,1017.18,73.2,0
"2021-07-12 08:02:39+00",7.9,9.9,,73.8,-199,-342,-73,1017.16,73.3,0
"2021-07-12 08:07:39+00",12.1,14.1,,73.8,-378,-497,-48,1017.23,73.2,0
"2021-07-12 08:12:39+00",9.7,11.7,,73.7,-308,-444,-51,1017.28,73.2,0
"2021-07-12 08:17:39+00",9.9,11.9,,73.6,-286,-457,-60,1017.23,73.2,0
"2021-07-12 08:22:39+00",9.6,12.6,,73.5,-272,-452,-55,1017.25,73.1,0
"2021-07-12 08:27:39+00",10.1,11.1,,73.5,-286,-512,-52,1017.25,73.1,0
"2021-07-12 08:32:39+00",8.9,10.9,,73.5,-215,-428,-64,1017.2,73.1,0
"2021-07-12 08:37:39+00",9.8,12.8,,73.6,-241,-483,-55,1017.28,73.1,0
"2021-07-12 08:42:39+00",9.8,11.8,,73.7,-269,-452,-70,1017.17,73.2,0
"2021-07-12 08:47:39+00",10.7,13.7,,73.7,-300,-477,-72,1017.19,73.2,0
"2021-07-12 08:52:39+00",9.8,11.8,,73.7,-274,-423,-43,1017.22,73.2,0
"2021-07-12 08:57:39+00",9.2,12.2,,73.7,-275,-405,-36,1017.26,73.3,0
"2021-07-12 09:02:39+00",11.0,13.0,,73.7,-333,-386,-42,1017.39,73.3,0
"2021-07-12 09:07:39+00",11.1,14.1,,73.7,-335,-341,-29,1017.34,73.3,0
"2021-07-12 09:12:39+00",10.5,13.5,,73.8,-329,-329,-35,1017.38,73.3,0
"2021-07-12 09:17:39+00",9.8,10.8,,73.8,-303,-288,-38,1017.39,73.3,0
"2021-07-12 09:22:39+00",10.0,12.0,,73.8,-354,-258,-42,1017.37,73.3,0
"2021-07-12 09:27:39+00",9.8,11.8,,73.9,-298,-324,-26,1017.3,73.3,0
"2021-07-12 09:32:39+00",9.4,10.4,,73.8,-292,-284,-3,1017.33,73.3,0
"2021-07-12 09:37:39+00",9.2,11.2,,73.9,-265,-306,6,1017.25,73.3,0
"2021-07-12 09:42:39+00",8.6,9.6,,73.9,-239,-301,11,1017.35,73.4,0
"2021-07-12 09:47:39+00",9.2,11.2,,74,-265,-321,6,1017.39,73.4,0
"2021-07-12 09:52:39+00",8.6,9.6,,74,-211,-329,13,1017.47,73.4,0
"2021-07-12 09:57:39+00",7.3,8.3,,74,-147,-290,-2,1017.48,73.5,0
"2021-07-12 10:02:39+00",7.5,8.5,,73.9,-152,-294,-5,1017.46,73.5,0
"2021-07-12 10:07:39+00",5.7,7.7,,73.8,-83,-231,3,1017.51,73.4,0
"2021-07-12 10:12:39+00",5.8,6.8,,73.7,-73,-227,-10,1017.53,73.3,0
"2021-07-12 10:17:39+00",4.9,5.9,,73.6,-80,-191,-4,1017.59,73.3,0
"2021-07-12 10:22:39+00",6.6,8.6,,73.7,-166,-252,6,1017.59,73.3,0
"2021-07-12 10:27:39+00",8.1,9.1,,73.9,-213,-304,-1,1017.54,73.5,0
"2021-07-12 10:32:39+00",7.6,8.6,,74,-178,-292,5,1017.64,73.6,0
"2021-07-12 10:37:39+00",8.6,9.6,,74.2,-176,-342,-1,1017.59,73.8,0
"2021-07-12 10:42:39+00",6.4,7.4,,74.4,-123,-248,-3,1017.61,74.1,0
"2021-07-12 10:47:39+00",5.1,6.1,,74.5,-50,-214,-9,1017.5,74.3,0
"2021-07-12 10:52:39+00",5.2,6.2,,74.6,-42,-207,1,1017.66,74.4,0
"2021-07-12 10:57:39+00",8.0,10.0,,74.6,-72,-336,-8,1017.76,74.5,0
"2021-07-12 11:02:39+00",5.5,7.5,,74.6,28,-229,2,1017.73,74.6,0
"2021-07-12 11:07:39+00",8.2,10.2,,74.2,-42,-345,-14,1017.6,74.3,0
"2021-07-12 11:12:39+00",8.3,11.3,,74,-97,-330,0,1017.8,74.3,0
"2021-07-12 11:17:39+00",9.0,10.0,,74.1,-219,-344,-3,1017.67,74.5,0
"2021-07-12 11:22:39+00",7.3,9.3,,74.5,-84,-305,9,1017.69,74.9,0
"2021-07-12 11:27:39+00",9.2,11.2,,74.7,-150,-367,8,1017.66,75.1,0
"2021-07-12 11:32:39+00",9.3,12.3,,74.9,-103,-399,-3,1017.68,75.2,0
"2021-07-12 11:37:39+00",10.7,11.7,,75.1,-172,-438,-2,1017.77,75.5,0
"2021-07-12 11:42:39+00",10.0,12.0,,75.2,-191,-414,-6,1017.74,75.8,0
"2021-07-12 11:47:39+00",12.0,13.0,,75.6,-287,-460,9,1017.73,76.3,0
"2021-07-12 11:52:39+00",11.8,13.8,,75.9,-258,-462,-8,1017.8,76.6,0
"2021-07-12 11:57:39+00",11.3,13.3,,76.1,-296,-417,-3,1017.96,76.9,0
"2021-07-12 12:02:39+00",10.5,12.5,,76.3,-311,-356,11,1017.96,77.3,0
"2021-07-12 12:07:39+00",13.3,16.3,,76.6,-410,-434,7,1017.97,77.8,0
"2021-07-12 12:12:39+00",15.2,17.2,,76.6,-473,-466,-6,1017.92,78,0
"2021-07-12 12:17:39+00",13.7,16.7,,76.6,-387,-509,3,1017.87,78.1,0
"2021-07-12 12:22:39+00",14.8,17.8,,76.7,-430,-520,28,1018.03,78.2,0
"2021-07-12 12:27:39+00",14.8,17.8,,76.9,-449,-483,-8,1017.99,78.5,0
"2021-07-12 12:32:39+00",14.0,16.0,,77.1,-414,-465,16,1017.99,78.8,0
"2021-07-12 12:37:39+00",15.5,17.5,,77.1,-475,-505,22,1018.09,78.9,0
"2021-07-12 12:42:39+00",15.3,16.3,,77.1,-489,-479,54,1018.17,79,0
"2021-07-12 12:47:39+00",18.6,21.6,,77,-562,-619,2,1018.15,79,0
"2021-07-12 12:52:39+00",17.2,19.2,,77.2,-524,-549,5,1018.25,79,0
"2021-07-12 12:57:39+00",14.8,17.8,,77.3,-417,-555,42,1018.3,79.1,0
"2021-07-12 13:02:39+00",16.0,18.0,,77.3,-449,-569,3,1018.33,79.2,0
"2021-07-12 13:07:39+00",18.6,19.6,,77.2,-528,-679,-5,1018.34,79.2,0
"2021-07-12 13:12:39+00",15.9,18.9,,77.2,-459,-572,17,1018.35,79.2,0
"2021-07-12 13:17:39+00",16.9,18.9,,77.4,-509,-570,-6,1018.39,79.4,0
"2021-07-12 13:22:39+00",15.2,17.2,,77.5,-463,-511,6,1018.49,79.6,0
"2021-07-12 13:27:39+00",14.5,15.5,,77.5,-418,-510,-7,1018.4,79.7,0
"2021-07-12 13:32:39+00",14.6,16.6,,77.6,-427,-500,0,1018.38,79.8,0
"2021-07-12 13:37:39+00",12.5,14.5,,77.9,-288,-487,17,1018.3,80,0
"2021-07-12 13:42:39+00",12.5,14.5,,78,-361,-423,-1,1018.47,80.2,0
"2021-07-12 13:47:39+00",13.4,14.4,,78.3,-300,-532,-8,1018.4,80.4,0
"2021-07-12 13:52:39+00",13.4,14.4,,78.6,-351,-519,-6,1018.41,80.5,0
"2021-07-12 13:57:39+00",12.8,14.8,,78.8,-375,-450,34,1018.46,80.7,0
"2021-07-12 14:02:39+00",11.0,13.0,,79,-325,-389,58,1018.46,81,0
"2021-07-12 14:07:39+00",13.4,15.4,,79.1,-322,-517,-14,1018.42,81,0
"2021-07-12 14:12:39+00",13.1,14.1,,79.2,-282,-517,-11,1018.44,81.2,0
"2021-07-12 14:17:39+00",11.1,13.1,,79.7,-332,-382,21,1018.52,81.6,0
"2021-07-12 14:22:39+00",11.3,14.3,,79.9,-314,-422,22,1018.56,82.1,0
"2021-07-12 14:27:39+00",10.9,12.9,,80,-199,-440,9,1018.58,82.2,0
"2021-07-12 14:32:39+00",10.4,12.4,,79.7,-184,-426,1,1018.66,81.8,0
"2021-07-12 14:37:39+00",8.4,10.4,,79.7,-127,-361,9,1018.69,81.5,0
"2021-07-12 14:42:39+00",12.9,14.9,,79.7,-343,-490,-10,1018.69,81.9,0
"2021-07-12 14:47:39+00",13.1,15.1,,79.7,-302,-518,-12,1018.65,81.6,0
"2021-07-12 14:52:39+00",14.3,16.3,,79.8,-280,-567,-15,1018.74,81.6,0
"2021-07-12 14:57:39+00",12.1,13.1,,79.8,-198,-483,-24,1018.72,81.7,0
"2021-07-12 15:02:39+00",13.4,14.4,,80.3,-245,-536,-22,1018.7,81.9,0
"2021-07-12 15:07:39+00",9.6,12.6,,80.7,-77,-406,-16,1018.73,82.3,0
"2021-07-12 15:12:39+00",11.2,14.2,,80.6,-115,-465,2,1018.75,82.3,0
"2021-07-12 15:17:39+00",10.9,14.9,,80.5,-123,-461,9,1018.78,82.1,0
"2021-07-12 15:22:39+00",11.5,14.5,,80.8,-134,-473,14,1018.73,82.3,0
"2021-07-12 15:27:39+00",12.6,15.6,,80.3,-168,-535,-21,1018.79,82,0
"2021-07-12 15:32:39+00",11.5,15.5,,80.5,-167,-477,1,1018.75,82,0
"2021-07-12 15:37:39+00",12.3,16.3,,80.3,-163,-506,8,1018.79,81.9,0
"2021-07-12 15:42:39+00",10.9,12.9,,80.6,-212,-452,26,1018.87,82.5,0
"2021-07-12 15:47:39+00",13.5,15.5,,80.3,-292,-549,-5,1018.82,82.4,0
"2021-07-12 15:52:39+00",11.7,14.7,,80.6,-193,-486,13,1018.85,82.4,0
"2021-07-12 15:57:39+00",12.8,14.8,,80.5,-203,-512,-7,1018.94,82.5,0
"2021-07-12 16:02:39+00",12.8,15.8,,80.7,-228,-514,-11,1018.93,82.6,0
"2021-07-12 16:07:39+00",13.0,16.0,,81,-257,-532,-13,1018.93,82.9,0
"2021-07-12 16:12:39+00",9.2,12.2,,81.1,-132,-411,18,1018.95,83,0
"2021-07-12 16:17:39+00",13.7,15.7,,81.6,-316,-546,-13,1018.94,83.4,0
"2021-07-12 16:22:39+00",12.1,13.1,,81.9,-232,-488,9,1018.9,83.7,0
"2021-07-12 16:27:39+00",13.0,14.0,,82.1,-342,-496,-1,1018.95,84.2,0
"2021-07-12 16:32:39+00",12.2,13.2,,82,-312,-463,-14,1019,84.4,0
"2021-07-12 16:37:39+00",12.3,13.3,,82.4,-292,-484,-4,1019.04,84.5,0
"2021-07-12 16:42:39+00",8.3,10.3,,83.1,-62,-344,6,1018.96,84.9,0
"2021-07-12 16:47:39+00",9.9,11.9,,82.1,56,-422,-9,1019.03,83.8,0
"2021-07-12 16:52:39+00",8.0,13.0,,82.5,-39,-321,50,1018.94,84,0
"2021-07-12 16:57:39+00",10.4,14.4,,82.4,-15,-426,-15,1019.04,83.7,0
"2021-07-12 17:02:39+00",13.4,15.4,,83,-193,-562,-21,1018.97,84.5,0
"2021-07-12 17:07:39+00",10.9,14.9,,83.5,-126,-436,-2,1018.98,85.1,0
"2021-07-12 17:12:39+00",11.6,14.6,,83.2,-171,-473,12,1018.99,84.9,0
"2021-07-12 17:17:39+00",13.4,16.4,,83,-169,-550,-24,1019.1,84.8,0
"2021-07-12 17:22:39+00",10.6,13.6,,83.4,-36,-447,14,1019.04,84.8,0
"2021-07-12 17:27:39+00",11.6,15.6,,82.2,31,-478,-16,1019.11,84,0
"2021-07-12 17:32:39+00",10.8,17.8,,82.1,-53,-477,-20,1019.01,83.5,0
"2021-07-12 17:37:39+00",10.8,14.8,,82.4,-72,-453,-15,1019.01,84.1,0
"2021-07-12 17:42:39+00",12.7,16.7,,82.9,-162,-544,-6,1019.03,84.5,0
"2021-07-12 17:47:39+00",10.1,15.1,,82.7,-63,-436,0,1019.02,84.3,0
"2021-07-12 17:52:39+00",14.0,16.0,,82.7,-87,-580,-43,1019.01,84.2,0
"2021-07-12 17:57:39+00",11.3,16.3,,82.9,-41,-454,-2,1019.01,84.4,0
"2021-07-12 18:02:39+00",13.9,17.9,,81.3,74,-593,-54,1018.99,83.2,0
"2021-07-12 18:07:39+00",9.8,13.8,,82.4,-43,-398,22,1019.01,83.9,0
"2021-07-12 18:12:39+00",10.0,13.0,,82.9,-56,-410,9,1018.97,84.2,0
"2021-07-12 18:17:39+00",11.9,15.9,,83.1,-98,-532,10,1018.93,84.4,0
"2021-07-12 18:22:39+00",12.1,17.1,,83.1,-92,-526,-28,1018.92,84.5,0
"2021-07-12 18:27:39+00",10.7,15.7,,83.1,-56,-476,6,1018.92,84.4,0
"2021-07-12 18:32:39+00",14.1,17.1,,83.2,-61,-597,-23,1018.82,84.6,0
"2021-07-12 18:37:39+00",12.7,16.7,,83.2,-81,-552,-22,1018.73,84.5,0
"2021-07-12 18:42:39+00",12.0,17.0,,83.4,-52,-519,-8,1018.72,84.6,0
"2021-07-12 18:47:39+00",14.2,18.2,,83.2,-107,-593,-12,1018.76,84.5,0
"2021-07-12 18:52:39+00",15.1,21.1,,82.8,-121,-627,8,1018.68,84.3,0
"2021-07-12 18:57:39+00",11.2,16.2,,82.1,-41,-456,36,1018.57,83.7,0
"2021-07-12 19:02:39+00",12.2,17.2,,82.3,-84,-527,8,1018.7,83.6,0
"2021-07-12 19:07:39+00",11.0,16.0,,81.9,-59,-455,18,1018.57,83.3,0
"2021-07-12 19:12:39+00",13.3,16.3,,81.9,-92,-556,-9,1018.67,83.4,0
"2021-07-12 19:17:39+00",10.5,13.5,,82.3,-100,-442,33,1018.67,83.7,0
"2021-07-12 19:22:39+00",12.4,17.4,,82.8,-75,-501,4,1018.59,84.1,0
"2021-07-12 19:27:39+00",15.5,18.5,,82.7,-87,-667,-40,1018.6,84.1,0
"2021-07-12 19:32:39+00",13.3,19.3,,83,-173,-542,1,1018.57,84.5,0
"2021-07-12 19:37:39+00",13.1,17.1,,83.2,-138,-527,2,1018.58,84.6,0
"2021-07-12 19:42:39+00",12.3,16.3,,83.1,-91,-507,10,1018.56,84.7,0
"2021-07-12 19:47:39+00",13.4,17.4,,83.1,-103,-571,-19,1018.61,84.7,0
"2021-07-12 19:52:39+00",15.5,19.5,,82.5,-196,-639,-8,1018.65,84.1,0
"2021-07-12 19:57:39+00",15.9,18.9,,82.4,-264,-658,12,1018.65,83.9,0
"2021-07-12 20:02:39+00",17.2,19.2,,82.4,-285,-703,0,1018.64,84,0
"2021-07-12 20:07:39+00",13.5,18.5,,83,-123,-558,7,1018.74,84.4,0
"2021-07-12 20:12:39+00",17.2,23.2,,82.7,-255,-712,-15,1018.65,84.3,0
"2021-07-12 20:17:39+00",17.1,21.1,,82.5,-173,-693,-8,1018.68,84,0
"2021-07-12 20:22:39+00",15.3,20.3,,82.8,-191,-629,7,1018.68,84.3,0
"2021-07-12 20:27:39+00",14.9,18.9,,82.9,-233,-619,10,1018.63,84.4,0
"2021-07-12 20:32:39+00",16.1,20.1,,83.2,-300,-650,21,1018.5,84.6,0
"2021-07-12 20:37:39+00",13.4,16.4,,83.4,-182,-548,10,1018.52,84.7,0
"2021-07-12 20:42:39+00",13.2,18.2,,83.4,-121,-561,9,1018.48,84.6,0
"2021-07-12 20:47:39+00",12.9,19.9,,83.2,-132,-546,37,1018.2,84.3,0
"2021-07-12 20:52:39+00",14.6,18.6,,83,-127,-618,12,1018.07,84.1,0
"2021-07-12 20:57:39+00",12.4,19.4,,82.9,-77,-523,17,1018.02,84,0
"2021-07-12 21:02:39+00",19.6,22.6,,82.4,-334,-813,-29,1018.18,83.7,0
"2021-07-12 21:07:39+00",20.1,24.1,,82.3,-301,-822,-16,1018.23,83.5,0
"2021-07-12 21:12:39+00",17.9,20.9,,82.5,-386,-722,-8,1018.39,83.8,0
"2021-07-12 21:17:39+00",17.3,20.3,,82.3,-321,-682,-22,1018.57,83.7,0
"2021-07-12 21:22:39+00",15.2,17.2,,82.6,-240,-624,-1,1018.67,84.2,0
"2021-07-12 21:27:39+00",14.1,16.1,,82.5,-258,-572,-14,1018.84,84.1,0
"2021-07-12 21:32:39+00",15.5,18.5,,82.4,-254,-624,-19,1018.85,83.9,0
"2021-07-12 21:37:39+00",14.4,17.4,,82.5,-304,-578,4,1018.98,83.9,0
"2021-07-12 21:42:39+00",14.6,17.6,,82.4,-313,-583,7,1019.03,83.7,0
"2021-07-12 21:47:39+00",14.7,17.7,,82.4,-257,-603,-18,1019.05,83.7,0
"2021-07-12 21:52:39+00",13.3,16.3,,82.4,-244,-553,22,1019.01,83.7,0
"2021-07-12 21:57:39+00",14.3,17.3,,82.2,-366,-565,23,1018.86,83.6,0
"2021-07-12 22:02:39+00",13.9,16.9,,82.1,-240,-557,-9,1018.98,83.5,0
"2021-07-12 22:07:39+00",11.6,14.6,,82.3,-163,-470,-8,1018.97,83.6,0
"2021-07-12 22:12:39+00",13.9,17.9,,82.4,-242,-581,-8,1018.92,83.7,0
"2021-07-12 22:17:39+00",10.2,14.2,,82.2,-106,-422,5,1018.88,83.2,0
"2021-07-12 22:22:39+00",8.6,11.6,,82.3,-79,-343,23,1019,83.3,0
"2021-07-12 22:27:39+00",9.1,12.1,,82,-119,-387,7,1019.01,82.9,0
"2021-07-12 22:32:39+00",10.7,11.7,,81.6,-184,-442,13,1019.07,82.3,0
"2021-07-12 22:37:39+00",12.3,14.3,,81.2,-250,-496,-8,1019.27,81.8,0
"2021-07-12 22:42:39+00",12.2,14.2,,81,-211,-486,-14,1019.23,81.5,0
"2021-07-12 22:47:39+00",11.8,13.8,,81.1,-199,-480,-1,1019.33,81.5,0
"2021-07-12 22:52:39+00",9.8,12.8,,81.1,-155,-400,6,1019.26,81.4,0
"2021-07-12 22:57:39+00",12.5,14.5,,80.9,-148,-507,-21,1019.15,81.1,0
"2021-07-12 23:02:39+00",12.0,14.0,,80.5,-199,-481,6,1019.24,80.6,0
"2021-07-12 23:07:39+00",10.0,14.0,,80.1,-77,-416,2,1019.1,80.3,0
"2021-07-12 23:12:39+00",8.8,12.8,,79.6,-68,-378,0,1019.06,79.8,0
"2021-07-12 23:17:39+00",10.9,12.9,,79.1,-302,-401,-9,1019.12,79.5,0
"2021-07-12 23:22:39+00",9.0,12.0,,78.8,-52,-394,-19,1018.9,79.2,0
"2021-07-12 23:27:39+00",9.1,12.1,,78.5,-94,-386,-8,1018.8,78.8,0
"2021-07-12 23:32:39+00",9.3,12.3,,78.5,-66,-390,-5,1018.72,78.6,0
"2021-07-12 23:37:39+00",12.0,14.0,,78.8,-242,-495,9,1018.89,78.7,0
"2021-07-12 23:42:39+00",14.1,15.1,,79.1,-333,-555,-1,1018.78,78.9,0
"2021-07-12 23:47:39+00",14.2,16.2,,79.2,-390,-522,3,1018.67,79,0
"2021-07-12 23:52:39+00",14.1,16.1,,79.3,-400,-511,5,1018.63,79.1,0
"2021-07-12 23:57:39+00",12.0,14.0,,79.3,-421,-324,6,1018.82,79.2,0
